TimeEST,TemperatureF,Dew PointF,Humidity,Sea Level PressureIn,VisibilityMPH,Wind Direction,Wind SpeedMPH,Gust SpeedMPH,PrecipitationIn,Events,Conditions,WindDirDegrees,DateUTC
12:53 AM,70.0,63.0,78,30.01,10.0,West,3.5,-,N/A,,Partly Cloudy,280,2012-11-05 05:53:00
1:53 AM,69.1,63.0,81,30.01,10.0,West,4.6,-,N/A,,Partly Cloudy,260,2012-11-05 06:53:00
2:53 AM,68.0,63.0,84,29.99,10.0,Calm,Calm,-,N/A,,Partly Cloudy,0,2012-11-05 07:53:00
3:53 AM,68.0,64.0,87,29.98,10.0,Calm,Calm,-,N/A,,Partly Cloudy,0,2012-11-05 08:53:00
4:53 AM,69.1,64.0,84,29.99,10.0,Calm,Calm,-,N/A,,Partly Cloudy,0,2012-11-05 09:53:00
5:53 AM,68.0,62.1,81,30.00,10.0,Calm,Calm,-,N/A,,Clear,0,2012-11-05 10:53:00
6:53 AM,66.9,64.0,90,30.01,9.0,Calm,Calm,-,N/A,,Partly Cloudy,0,2012-11-05 11:53:00
7:53 AM,69.1,63.0,81,30.02,10.0,West,3.5,-,N/A,,Mostly Cloudy,260,2012-11-05 12:53:00
8:53 AM,71.1,60.1,68,30.02,10.0,WNW,4.6,-,N/A,,Mostly Cloudy,300,2012-11-05 13:53:00
9:53 AM,73.9,57.9,57,30.02,10.0,WNW,4.6,-,N/A,,Mostly Cloudy,290,2012-11-05 14:53:00
10:53 AM,75.9,59.0,56,30.01,10.0,WNW,4.6,-,N/A,,Mostly Cloudy,290,2012-11-05 15:53:00
11:53 AM,78.1,57.9,50,29.99,10.0,WNW,9.2,-,N/A,,Partly Cloudy,290,2012-11-05 16:53:00
12:53 PM,80.1,57.9,47,29.96,10.0,WNW,11.5,16.1,N/A,,Partly Cloudy,300,2012-11-05 17:53:00
1:53 PM,79.0,57.9,48,29.94,10.0,NW,6.9,-,N/A,,Partly Cloudy,320,2012-11-05 18:53:00
2:53 PM,80.1,57.0,45,29.94,10.0,West,5.8,-,N/A,,Partly Cloudy,260,2012-11-05 19:53:00
3:53 PM,78.1,57.0,48,29.94,10.0,NW,4.6,-,N/A,,Partly Cloudy,310,2012-11-05 20:53:00
4:53 PM,77.0,54.0,45,29.93,10.0,NW,3.5,-,N/A,,Partly Cloudy,310,2012-11-05 21:53:00
5:53 PM,75.9,53.1,45,29.95,10.0,WNW,3.5,-,N/A,,Partly Cloudy,290,2012-11-05 22:53:00
6:53 PM,73.0,57.0,57,29.96,10.0,Calm,Calm,-,N/A,,Clear,0,2012-11-05 23:53:00
7:53 PM,73.0,57.9,59,29.97,10.0,Calm,Calm,-,N/A,,Clear,0,2012-11-06 00:53:00
8:53 PM,73.0,55.9,55,29.97,10.0,Calm,Calm,-,N/A,,Clear,0,2012-11-06 01:53:00
9:53 PM,73.0,55.9,55,29.97,10.0,Calm,Calm,-,N/A,,Clear,0,2012-11-06 02:53:00
10:53 PM,73.0,54.0,51,29.96,10.0,Calm,Calm,-,N/A,,Scattered Clouds,0,2012-11-06 03:53:00
11:53 PM,72.0,55.0,55,29.94,10.0,Calm,Calm,-,N/A,,Partly Cloudy,0,2012-11-06 04:53:00